Wetterdaten: Samstag, 18.10.2014
Datum Zeit Temperatur Luftfeuchte Luftdruck Regen Wind Richtung Richtung Taupunkt Windchill Windben
18.10.2014 00:00 6,8 C 91 % 1023,1 hPa 0,0 l/m 0,0 km/h (0 Bft) S-SO 157 5,4 C 22,8 C 0,0 km/h (0 Bft)
18.10.2014 00:10 6,9 C 92 % 1023,1 hPa 0,0 l/m 0,0 km/h (0 Bft) S-SO 157 5,7 C 22,8 C 0,0 km/h (0 Bft)
18.10.2014 00:18 6,8 C 92 % 1023,1 hPa 0,0 l/m 0,0 km/h (0 Bft) S-SO 157 5,6 C 22,8 C 0,0 km/h (0 Bft)
18.10.2014 00:20 6,8 C 92 % 1023,1 hPa 0,0 l/m 0,0 km/h (0 Bft) S-SO 157 5,6 C 22,8 C 0,0 km/h (0 Bft)
18.10.2014 00:30 6,5 C 92 % 1023,3 hPa 0,0 l/m 0,0 km/h (0 Bft) S-SO 157 5,3 C 22,8 C 0,0 km/h (0 Bft)
18.10.2014 00:40 6,3 C 92 % 1023,3 hPa 0,0 l/m 0,0 km/h (0 Bft) S-SO 157 5,1 C 22,8 C 0,0 km/h (0 Bft)
18.10.2014 00:50 6,1 C 92 % 1023,2 hPa 0,0 l/m 0,0 km/h (0 Bft) S-SO 157 4,9 C 22,8 C 0,0 km/h (0 Bft)
18.10.2014 01:00 6,2 C 92 % 1023,2 hPa 0,0 l/m 0,0 km/h (0 Bft) S-SO 157 5,0 C 22,8 C 0,0 km/h (0 Bft)
18.10.2014 01:10 6,3 C 92 % 1023,2 hPa 0,0 l/m 0,0 km/h (0 Bft) S-SO 157 5,1 C 22,8 C 0,0 km/h (0 Bft)
18.10.2014 01:20 5,9 C 93 % 1023,2 hPa 0,0 l/m 0,0 km/h (0 Bft) S-SO 157 4,9 C 22,8 C 0,0 km/h (0 Bft)
18.10.2014 01:30 6,2 C 92 % 1023,2 hPa 0,0 l/m 0,0 km/h (0 Bft) S-SO 157 5,0 C 22,8 C 0,0 km/h (0 Bft)
18.10.2014 01:40 5,9 C 94 % 1023,2 hPa 0,0 l/m 0,0 km/h (0 Bft) S-SO 157 5,0 C 22,8 C 0,0 km/h (0 Bft)
18.10.2014 01:50 5,5 C 94 % 1023,2 hPa 0,0 l/m 0,0 km/h (0 Bft) S-SO 157 4,6 C 22,8 C 0,0 km/h (0 Bft)
18.10.2014 02:00 5,7 C 94 % 1023,2 hPa 0,0 l/m 0,0 km/h (0 Bft) S-SO 157 4,8 C 22,8 C 0,0 km/h (0 Bft)
18.10.2014 02:10 5,6 C 94 % 1023,2 hPa 0,0 l/m 0,0 km/h (0 Bft) S-SO 157 4,7 C 22,8 C 0,0 km/h (0 Bft)
18.10.2014 02:20 5,7 C 94 % 1023,2 hPa 0,0 l/m 0,0 km/h (0 Bft) S-SO 157 4,8 C 22,8 C 0,0 km/h (0 Bft)
18.10.2014 02:30 5,7 C 94 % 1023,0 hPa 0,0 l/m 0,0 km/h (0 Bft) S-SO 157 4,8 C 22,8 C 0,0 km/h (0 Bft)
18.10.2014 02:40 5,6 C 95 % 1023,0 hPa 0,0 l/m 0,0 km/h (0 Bft) S-SO 157 4,9 C 22,8 C 0,0 km/h (0 Bft)
18.10.2014 02:50 5,5 C 95 % 1023,1 hPa 0,0 l/m 0,0 km/h (0 Bft) S-SO 157 4,8 C 22,8 C 0,0 km/h (0 Bft)
18.10.2014 03:00 5,3 C 95 % 1023,1 hPa 0,0 l/m 0,0 km/h (0 Bft) S-SO 157 4,6 C 22,8 C 0,0 km/h (0 Bft)
18.10.2014 03:10 5,0 C 95 % 1023,1 hPa 0,0 l/m 0,0 km/h (0 Bft) S-SO 157 4,3 C 22,8 C 0,0 km/h (0 Bft)
18.10.2014 03:18 4,9 C 95 % 1023,1 hPa 0,0 l/m 0,0 km/h (0 Bft) S-SO 157 4,2 C 22,8 C 0,0 km/h (0 Bft)
18.10.2014 03:20 4,9 C 95 % 1023,1 hPa 0,0 l/m 0,0 km/h (0 Bft) S-SO 157 4,2 C 22,8 C 0,0 km/h (0 Bft)
18.10.2014 03:30 5,1 C 95 % 1023,2 hPa 0,0 l/m 0,0 km/h (0 Bft) S-SO 157 4,4 C 22,8 C 0,0 km/h (0 Bft)
18.10.2014 03:40 4,8 C 95 % 1023,2 hPa 0,0 l/m 0,0 km/h (0 Bft) S-SO 157 4,1 C 22,8 C 0,0 km/h (0 Bft)
18.10.2014 03:50 4,7 C 95 % 1023,2 hPa 0,0 l/m 0,0 km/h (0 Bft) S-SO 157 4,0 C 22,8 C 0,0 km/h (0 Bft)
18.10.2014 04:00 4,6 C 96 % 1023,2 hPa 0,0 l/m 0,0 km/h (0 Bft) S-SO 157 4,0 C 22,8 C 0,0 km/h (0 Bft)
18.10.2014 04:10 5,2 C 95 % 1023,1 hPa 0,0 l/m 0,0 km/h (0 Bft) S-SO 157 4,5 C 22,8 C 0,0 km/h (0 Bft)
18.10.2014 04:20 5,8 C 96 % 1023,1 hPa 0,0 l/m 0,0 km/h (0 Bft) S-SO 157 5,2 C 22,8 C 0,0 km/h (0 Bft)
18.10.2014 04:30 5,7 C 96 % 1023,2 hPa 0,0 l/m 0,0 km/h (0 Bft) S-SO 157 5,1 C 22,8 C 0,0 km/h (0 Bft)
18.10.2014 04:40 5,6 C 96 % 1023,2 hPa 0,0 l/m 0,0 km/h (0 Bft) S-SO 157 5,0 C 22,8 C 0,0 km/h (0 Bft)
18.10.2014 04:50 5,7 C 96 % 1023,2 hPa 0,0 l/m 0,0 km/h (0 Bft) S-SO 157 5,1 C 22,8 C 0,0 km/h (0 Bft)
18.10.2014 05:00 5,6 C 96 % 1023,2 hPa 0,0 l/m 0,0 km/h (0 Bft) S-SO 157 5,0 C 22,8 C 0,0 km/h (0 Bft)
18.10.2014 05:10 5,4 C 96 % 1023,4 hPa 0,0 l/m 0,0 km/h (0 Bft) S-SO 157 4,8 C 22,8 C 0,0 km/h (0 Bft)
18.10.2014 05:20 4,8 C 96 % 1023,4 hPa 0,0 l/m 0,0 km/h (0 Bft) S-SO 157 4,2 C 22,8 C 0,0 km/h (0 Bft)
18.10.2014 05:30 5,1 C 96 % 1023,7 hPa 0,0 l/m 0,0 km/h (0 Bft) S-SO 157 4,5 C 22,8 C 0,0 km/h (0 Bft)
18.10.2014 05:40 5,0 C 96 % 1023,7 hPa 0,0 l/m 0,0 km/h (0 Bft) S-SO 157 4,4 C 22,8 C 0,0 km/h (0 Bft)
18.10.2014 05:50 4,6 C 96 % 1023,9 hPa 0,0 l/m 0,0 km/h (0 Bft) S-SO 157 4,0 C 22,8 C 0,0 km/h (0 Bft)
18.10.2014 06:00 4,8 C 96 % 1023,9 hPa 0,0 l/m 0,0 km/h (0 Bft) S-SO 157 4,2 C 22,8 C 0,0 km/h (0 Bft)
18.10.2014 06:10 4,8 C 96 % 1024,1 hPa 0,0 l/m 0,0 km/h (0 Bft) S-SO 157 4,2 C 22,8 C 0,0 km/h (0 Bft)
18.10.2014 06:18 5,1 C 96 % 1024,1 hPa 0,0 l/m 0,0 km/h (0 Bft) S-SO 157 4,5 C 22,8 C 0,0 km/h (0 Bft)
18.10.2014 06:20 5,1 C 96 % 1024,1 hPa 0,0 l/m 0,0 km/h (0 Bft) S-SO 157 4,5 C 22,8 C 0,0 km/h (0 Bft)
18.10.2014 06:30 5,3 C 96 % 1024,1 hPa 0,0 l/m 0,0 km/h (0 Bft) S-SO 157 4,7 C 22,8 C 0,0 km/h (0 Bft)
18.10.2014 06:40 5,5 C 96 % 1024,1 hPa 0,0 l/m 0,0 km/h (0 Bft) S-SO 157 4,9 C 22,8 C 0,0 km/h (0 Bft)
18.10.2014 06:50 5,1 C 96 % 1024,0 hPa 0,0 l/m 0,0 km/h (0 Bft) S-SO 157 4,5 C 22,8 C 0,0 km/h (0 Bft)
18.10.2014 07:00 5,1 C 96 % 1024,0 hPa 0,0 l/m 0,0 km/h (0 Bft) S-SO 157 4,5 C 22,8 C 0,0 km/h (0 Bft)
18.10.2014 07:10 4,7 C 96 % 1024,0 hPa 0,0 l/m 0,0 km/h (0 Bft) S-SO 157 4,1 C 22,8 C 0,0 km/h (0 Bft)
18.10.2014 07:20 4,8 C 96 % 1024,0 hPa 0,0 l/m 0,0 km/h (0 Bft) S-SO 157 4,2 C 22,8 C 0,0 km/h (0 Bft)
18.10.2014 07:30 5,3 C 96 % 1024,0 hPa 0,0 l/m 0,0 km/h (0 Bft) S-SO 157 4,7 C 22,8 C 0,0 km/h (0 Bft)
18.10.2014 07:40 4,6 C 96 % 1024,0 hPa 0,0 l/m 0,0 km/h (0 Bft) S-SO 157 4,0 C 22,8 C 0,0 km/h (0 Bft)
18.10.2014 07:50 4,7 C 96 % 1024,1 hPa 0,0 l/m 0,0 km/h (0 Bft) S-SO 157 4,1 C 22,8 C 0,0 km/h (0 Bft)
18.10.2014 08:00 4,7 C 96 % 1024,1 hPa 0,0 l/m 0,0 km/h (0 Bft) S-SO 157 4,1 C 22,8 C 0,0 km/h (0 Bft)
18.10.2014 08:10 5,0 C 96 % 1024,2 hPa 0,0 l/m 0,0 km/h (0 Bft) S-SO 157 4,4 C 22,8 C 0,0 km/h (0 Bft)
18.10.2014 08:20 4,9 C 97 % 1024,2 hPa 0,0 l/m 0,0 km/h (0 Bft) S-SO 157 4,5 C 22,8 C 0,0 km/h (0 Bft)
18.10.2014 08:30 5,6 C 96 % 1024,5 hPa 0,0 l/m 0,0 km/h (0 Bft) S-SO 157 5,0 C 22,8 C 0,0 km/h (0 Bft)
18.10.2014 08:40 5,8 C 96 % 1024,5 hPa 0,0 l/m 0,0 km/h (0 Bft) S-SO 157 5,2 C 22,8 C 0,0 km/h (0 Bft)
18.10.2014 08:50 6,0 C 96 % 1024,6 hPa 0,0 l/m 0,0 km/h (0 Bft) S-SO 157 5,4 C 22,8 C 0,0 km/h (0 Bft)
18.10.2014 09:00 6,3 C 96 % 1024,6 hPa 0,0 l/m 0,0 km/h (0 Bft) S-SO 157 5,7 C 22,8 C 0,0 km/h (0 Bft)
18.10.2014 09:10 6,4 C 96 % 1024,9 hPa 0,0 l/m 0,0 km/h (0 Bft) S-SO 157 5,8 C 22,8 C 0,0 km/h (0 Bft)
18.10.2014 09:18 6,9 C 96 % 1024,9 hPa 0,0 l/m 0,0 km/h (0 Bft) S-SO 157 6,3 C 22,8 C 0,0 km/h (0 Bft)
18.10.2014 09:20 6,9 C 96 % 1024,9 hPa 0,0 l/m 0,0 km/h (0 Bft) S-SO 157 6,3 C 22,8 C 0,0 km/h (0 Bft)
18.10.2014 09:30 7,3 C 96 % 1025,0 hPa 0,0 l/m 0,0 km/h (0 Bft) S-SO 157 6,7 C 22,8 C 0,0 km/h (0 Bft)
18.10.2014 09:40 8,1 C 95 % 1025,0 hPa 0,0 l/m 0,0 km/h (0 Bft) S-SO 157 7,3 C 22,8 C 0,0 km/h (0 Bft)
18.10.2014 09:50 8,5 C 95 % 1025,1 hPa 0,0 l/m 0,0 km/h (0 Bft) S-SO 157 7,7 C 22,8 C 0,0 km/h (0 Bft)
18.10.2014 10:00 8,8 C 95 % 1025,1 hPa 0,0 l/m 0,0 km/h (0 Bft) S-SO 157 8,0 C 22,8 C 0,0 km/h (0 Bft)
18.10.2014 10:10 8,9 C 95 % 1025,2 hPa 0,0 l/m 0,0 km/h (0 Bft) S-SO 157 8,1 C 22,8 C 0,0 km/h (0 Bft)
18.10.2014 10:20 9,5 C 95 % 1025,2 hPa 0,0 l/m 0,0 km/h (0 Bft) S-SO 157 8,7 C 22,8 C 0,0 km/h (0 Bft)
18.10.2014 10:30 9,8 C 95 % 1025,4 hPa 0,0 l/m 0,0 km/h (0 Bft) S-SO 157 9,0 C 22,8 C 0,0 km/h (0 Bft)
18.10.2014 10:40 10,2 C 95 % 1025,4 hPa 0,0 l/m 0,0 km/h (0 Bft) S-SO 157 9,4 C 22,8 C 0,0 km/h (0 Bft)
18.10.2014 10:50 10,6 C 95 % 1025,4 hPa 0,0 l/m 0,0 km/h (0 Bft) S-SO 157 9,8 C 22,8 C 0,0 km/h (0 Bft)
18.10.2014 11:00 10,9 C 95 % 1025,4 hPa 0,0 l/m 0,0 km/h (0 Bft) S-SO 157 10,1 C 22,8 C 0,0 km/h (0 Bft)
18.10.2014 11:10 11,2 C 95 % 1025,6 hPa 0,0 l/m 0,0 km/h (0 Bft) S-SO 157 10,4 C 22,8 C 0,0 km/h (0 Bft)
18.10.2014 11:20 11,5 C 95 % 1025,6 hPa 0,0 l/m 0,0 km/h (0 Bft) S-SO 157 10,7 C 22,8 C 0,0 km/h (0 Bft)
18.10.2014 11:30 14,3 C 92 % 1025,8 hPa 0,0 l/m 0,0 km/h (0 Bft) S-SO 157 13,0 C 22,8 C 0,0 km/h (0 Bft)
18.10.2014 11:40 15,4 C 82 % 1025,8 hPa 0,0 l/m 0,0 km/h (0 Bft) S-SO 157 12,3 C 22,8 C 0,0 km/h (0 Bft)
18.10.2014 11:50 15,3 C 84 % 1025,9 hPa 0,0 l/m 0,0 km/h (0 Bft) S-SO 157 12,6 C 22,8 C 0,0 km/h (0 Bft)
18.10.2014 12:00 14,3 C 83 % 1025,9 hPa 0,0 l/m 0,0 km/h (0 Bft) S-SO 157 11,5 C 22,8 C 0,0 km/h (0 Bft)
18.10.2014 12:10 16,0 C 76 % 1026,1 hPa 0,0 l/m 0,0 km/h (0 Bft) S-SO 157 11,8 C 22,8 C 0,0 km/h (0 Bft)
18.10.2014 12:18 17,7 C 68 % 1026,1 hPa 0,0 l/m 0,0 km/h (0 Bft) S-SO 157 11,7 C 22,8 C 0,0 km/h (0 Bft)
18.10.2014 12:20 17,7 C 68 % 1026,1 hPa 0,0 l/m 0,0 km/h (0 Bft) S-SO 157 11,7 C 22,8 C 0,0 km/h (0 Bft)
18.10.2014 12:30 19,5 C 67 % 1026,1 hPa 0,0 l/m 0,0 km/h (0 Bft) S-SO 157 13,2 C 22,8 C 0,0 km/h (0 Bft)
18.10.2014 12:40 20,5 C 63 % 1026,1 hPa 0,0 l/m 0,0 km/h (0 Bft) S-SO 157 13,2 C 22,8 C 0,0 km/h (0 Bft)
18.10.2014 12:50 21,0 C 56 % 1026,2 hPa 0,0 l/m 0,0 km/h (0 Bft) S-SO 157 11,9 C 22,8 C 0,0 km/h (0 Bft)
18.10.2014 13:00 21,1 C 66 % 1026,2 hPa 0,0 l/m 0,0 km/h (0 Bft) S-SO 157 14,5 C 22,8 C 0,0 km/h (0 Bft)
18.10.2014 13:10 21,3 C 52 % 1026,1 hPa 0,0 l/m 0,0 km/h (0 Bft) S-SO 157 11,0 C 22,8 C 0,0 km/h (0 Bft)
18.10.2014 13:20 21,2 C 56 % 1026,1 hPa 0,0 l/m 0,0 km/h (0 Bft) S-SO 157 12,1 C 22,8 C 0,0 km/h (0 Bft)
18.10.2014 13:30 21,1 C 56 % 1026,0 hPa 0,0 l/m 0,0 km/h (0 Bft) S-SO 157 12,0 C 22,8 C 0,0 km/h (0 Bft)
18.10.2014 13:40 21,2 C 49 % 1026,0 hPa 0,0 l/m 0,0 km/h (0 Bft) S-SO 157 10,1 C 22,8 C 0,0 km/h (0 Bft)
18.10.2014 13:50 21,3 C 49 % 1026,0 hPa 0,0 l/m 0,0 km/h (0 Bft) S-SO 157 10,1 C 22,8 C 0,0 km/h (0 Bft)
18.10.2014 14:00 20,8 C 48 % 1026,0 hPa 0,0 l/m 0,0 km/h (0 Bft) S-SO 157 9,4 C 22,8 C 0,0 km/h (0 Bft)
18.10.2014 14:10 21,0 C 47 % 1025,9 hPa 0,0 l/m 0,0 km/h (0 Bft) S-SO 157 9,3 C 22,8 C 0,0 km/h (0 Bft)
18.10.2014 14:20 21,0 C 46 % 1025,9 hPa 0,0 l/m 0,0 km/h (0 Bft) S-SO 157 8,9 C 22,8 C 0,0 km/h (0 Bft)
18.10.2014 14:30 21,3 C 46 % 1025,8 hPa 0,0 l/m 0,0 km/h (0 Bft) S-SO 157 9,2 C 22,8 C 0,0 km/h (0 Bft)
18.10.2014 14:40 21,3 C 45 % 1025,8 hPa 0,0 l/m 0,0 km/h (0 Bft) S-SO 157 8,9 C 22,8 C 0,0 km/h (0 Bft)
18.10.2014 14:50 21,0 C 46 % 1025,5 hPa 0,0 l/m 0,0 km/h (0 Bft) S-SO 157 8,9 C 22,8 C 0,0 km/h (0 Bft)
18.10.2014 15:00 21,8 C 45 % 1025,5 hPa 0,0 l/m 0,0 km/h (0 Bft) S-SO 157 9,3 C 22,8 C 0,0 km/h (0 Bft)
18.10.2014 15:10 21,7 C 44 % 1025,5 hPa 0,0 l/m 0,0 km/h (0 Bft) S-SO 157 8,9 C 22,8 C 0,0 km/h (0 Bft)
18.10.2014 15:20 22,1 C 45 % 1025,5 hPa 0,0 l/m 0,0 km/h (0 Bft) S-SO 157 9,6 C 22,8 C 0,0 km/h (0 Bft)
18.10.2014 15:30 21,5 C 43 % 1025,3 hPa 0,0 l/m 0,0 km/h (0 Bft) S-SO 157 8,4 C 22,8 C 0,0 km/h (0 Bft)
18.10.2014 15:40 22,1 C 46 % 1025,3 hPa 0,0 l/m 0,0 km/h (0 Bft) S-SO 157 9,9 C 22,8 C 0,0 km/h (0 Bft)
18.10.2014 15:50 21,5 C 47 % 1025,2 hPa 0,0 l/m 0,0 km/h (0 Bft) S-SO 157 9,7 C 22,8 C 0,0 km/h (0 Bft)
18.10.2014 16:00 20,9 C 47 % 1025,2 hPa 0,0 l/m 0,0 km/h (0 Bft) S-SO 157 9,2 C 22,8 C 0,0 km/h (0 Bft)
18.10.2014 16:10 20,4 C 47 % 1025,1 hPa 0,0 l/m 0,0 km/h (0 Bft) S-SO 157 8,7 C 22,8 C 0,0 km/h (0 Bft)
18.10.2014 16:20 20,0 C 49 % 1025,1 hPa 0,0 l/m 0,0 km/h (0 Bft) S-SO 157 9,0 C 22,8 C 0,0 km/h (0 Bft)
18.10.2014 16:30 19,7 C 50 % 1025,0 hPa 0,0 l/m 0,0 km/h (0 Bft) S-SO 157 9,0 C 22,8 C 0,0 km/h (0 Bft)
18.10.2014 16:40 19,0 C 51 % 1025,0 hPa 0,0 l/m 0,0 km/h (0 Bft) S-SO 157 8,6 C 22,8 C 0,0 km/h (0 Bft)
18.10.2014 16:50 17,9 C 56 % 1024,9 hPa 0,0 l/m 0,0 km/h (0 Bft) S-SO 157 9,0 C 22,8 C 0,0 km/h (0 Bft)
18.10.2014 17:00 17,3 C 58 % 1024,9 hPa 0,0 l/m 0,0 km/h (0 Bft) S-SO 157 9,0 C 22,8 C 0,0 km/h (0 Bft)
18.10.2014 17:10 16,7 C 59 % 1025,0 hPa 0,0 l/m 0,0 km/h (0 Bft) S-SO 157 8,6 C 22,8 C 0,0 km/h (0 Bft)
18.10.2014 17:20 16,5 C 60 % 1025,0 hPa 0,0 l/m 0,0 km/h (0 Bft) S-SO 157 8,7 C 22,8 C 0,0 km/h (0 Bft)
18.10.2014 17:30 16,1 C 62 % 1024,9 hPa 0,0 l/m 0,0 km/h (0 Bft) S-SO 157 8,8 C 22,8 C 0,0 km/h (0 Bft)
18.10.2014 17:40 15,8 C 65 % 1024,9 hPa 0,0 l/m 0,0 km/h (0 Bft) S-SO 157 9,2 C 22,8 C 0,0 km/h (0 Bft)
18.10.2014 17:50 15,7 C 65 % 1024,9 hPa 0,0 l/m 0,0 km/h (0 Bft) S-SO 157 9,1 C 22,8 C 0,0 km/h (0 Bft)
18.10.2014 18:00 15,8 C 67 % 1024,9 hPa 0,0 l/m 0,0 km/h (0 Bft) S-SO 157 9,7 C 22,8 C 0,0 km/h (0 Bft)
18.10.2014 18:08 15,4 C 69 % 1024,9 hPa 0,0 l/m 0,0 km/h (0 Bft) S-SO 157 9,7 C 22,8 C 0,0 km/h (0 Bft)
18.10.2014 18:10 15,4 C 69 % 1024,9 hPa 0,0 l/m 0,0 km/h (0 Bft) S-SO 157 9,7 C 22,8 C 0,0 km/h (0 Bft)
18.10.2014 18:20 15,1 C 71 % 1024,9 hPa 0,0 l/m 0,0 km/h (0 Bft) S-SO 157 9,9 C 22,8 C 0,0 km/h (0 Bft)
18.10.2014 18:30 14,7 C 72 % 1025,1 hPa 0,0 l/m 0,0 km/h (0 Bft) S-SO 157 9,7 C 22,8 C 0,0 km/h (0 Bft)
18.10.2014 18:40 14,2 C 73 % 1025,1 hPa 0,0 l/m 0,0 km/h (0 Bft) S-SO 157 9,4 C 22,8 C 0,0 km/h (0 Bft)
18.10.2014 18:44 13,8 C 74 % 1024,9 hPa 0,0 l/m 0,0 km/h (0 Bft) S-SO 157 9,2 C 22,8 C 0,0 km/h (0 Bft)
18.10.2014 18:50 13,3 C 76 % 1024,9 hPa 0,0 l/m 0,0 km/h (0 Bft) S-SO 157 9,2 C 22,8 C 0,0 km/h (0 Bft)
18.10.2014 19:00 12,4 C 78 % 1025,1 hPa 0,0 l/m 0,0 km/h (0 Bft) S-SO 157 8,7 C 22,8 C 0,0 km/h (0 Bft)
18.10.2014 19:10 11,1 C 78 % 1025,1 hPa 0,0 l/m 0,0 km/h (0 Bft) S-SO 157 7,4 C 22,8 C 0,0 km/h (0 Bft)
18.10.2014 19:20 11,1 C 80 % 1025,2 hPa 0,0 l/m 0,0 km/h (0 Bft) S-SO 157 7,8 C 22,8 C 0,0 km/h (0 Bft)
18.10.2014 19:30 11,0 C 81 % 1025,2 hPa 0,0 l/m 0,0 km/h (0 Bft) S-SO 157 7,9 C 22,8 C 0,0 km/h (0 Bft)
18.10.2014 19:40 10,6 C 82 % 1025,4 hPa 0,0 l/m 0,0 km/h (0 Bft) S-SO 157 7,7 C 22,8 C 0,0 km/h (0 Bft)
18.10.2014 19:50 10,0 C 82 % 1025,4 hPa 0,0 l/m 0,0 km/h (0 Bft) S-SO 157 7,1 C 22,8 C 0,0 km/h (0 Bft)
18.10.2014 20:00 9,8 C 83 % 1025,6 hPa 0,0 l/m 0,0 km/h (0 Bft) S-SO 157 7,1 C 22,8 C 0,0 km/h (0 Bft)
18.10.2014 20:10 9,9 C 84 % 1025,6 hPa 0,0 l/m 0,0 km/h (0 Bft) S-SO 157 7,3 C 22,8 C 0,0 km/h (0 Bft)
18.10.2014 20:20 9,9 C 85 % 1025,6 hPa 0,0 l/m 0,0 km/h (0 Bft) S-SO 157 7,5 C 22,8 C 0,0 km/h (0 Bft)
18.10.2014 20:30 9,3 C 85 % 1025,6 hPa 0,0 l/m 0,0 km/h (0 Bft) S-SO 157 6,9 C 22,8 C 0,0 km/h (0 Bft)
18.10.2014 20:40 9,1 C 86 % 1025,6 hPa 0,0 l/m 0,0 km/h (0 Bft) S-SO 157 6,9 C 22,8 C 0,0 km/h (0 Bft)
18.10.2014 20:50 8,7 C 86 % 1025,6 hPa 0,0 l/m 0,0 km/h (0 Bft) S-SO 157 6,5 C 22,8 C 0,0 km/h (0 Bft)
18.10.2014 21:00 8,6 C 87 % 1025,8 hPa 0,0 l/m 0,0 km/h (0 Bft) S-SO 157 6,6 C 22,8 C 0,0 km/h (0 Bft)
18.10.2014 21:10 8,6 C 87 % 1025,8 hPa 0,0 l/m 0,0 km/h (0 Bft) S-SO 157 6,6 C 22,8 C 0,0 km/h (0 Bft)
18.10.2014 21:20 8,4 C 87 % 1025,8 hPa 0,0 l/m 0,0 km/h (0 Bft) S-SO 157 6,4 C 22,8 C 0,0 km/h (0 Bft)
18.10.2014 21:30 8,4 C 88 % 1025,8 hPa 0,0 l/m 0,0 km/h (0 Bft) S-SO 157 6,5 C 22,8 C 0,0 km/h (0 Bft)
18.10.2014 21:40 8,1 C 88 % 1025,9 hPa 0,0 l/m 0,0 km/h (0 Bft) S-SO 157 6,2 C 22,8 C 0,0 km/h (0 Bft)
18.10.2014 21:50 8,0 C 88 % 1025,9 hPa 0,0 l/m 0,0 km/h (0 Bft) S-SO 157 6,1 C 22,8 C 0,0 km/h (0 Bft)
18.10.2014 22:00 7,9 C 88 % 1025,8 hPa 0,0 l/m 0,0 km/h (0 Bft) S-SO 157 6,0 C 22,8 C 0,0 km/h (0 Bft)
18.10.2014 22:10 7,8 C 89 % 1025,8 hPa 0,0 l/m 0,0 km/h (0 Bft) S-SO 157 6,1 C 22,8 C 0,0 km/h (0 Bft)
18.10.2014 22:20 7,8 C 89 % 1026,0 hPa 0,0 l/m 0,0 km/h (0 Bft) S-SO 157 6,1 C 22,8 C 0,0 km/h (0 Bft)
18.10.2014 22:30 8,2 C 89 % 1026,0 hPa 0,0 l/m 0,0 km/h (0 Bft) S-SO 157 6,5 C 22,8 C 0,0 km/h (0 Bft)
18.10.2014 22:40 8,2 C 89 % 1026,2 hPa 0,0 l/m 0,0 km/h (0 Bft) S-SO 157 6,5 C 22,8 C 0,0 km/h (0 Bft)
18.10.2014 22:50 7,5 C 89 % 1026,2 hPa 0,0 l/m 0,0 km/h (0 Bft) S-SO 157 5,8 C 22,8 C 0,0 km/h (0 Bft)
18.10.2014 23:00 7,7 C 90 % 1026,1 hPa 0,0 l/m 0,0 km/h (0 Bft) S-SO 157 6,2 C 22,8 C 0,0 km/h (0 Bft)
18.10.2014 23:10 8,1 C 90 % 1026,1 hPa 0,0 l/m 0,0 km/h (0 Bft) S-SO 157 6,6 C 22,8 C 0,0 km/h (0 Bft)
18.10.2014 23:20 7,4 C 90 % 1025,9 hPa 0,0 l/m 0,0 km/h (0 Bft) S-SO 157 5,9 C 22,8 C 0,0 km/h (0 Bft)
18.10.2014 23:30 7,5 C 90 % 1025,9 hPa 0,0 l/m 0,0 km/h (0 Bft) S-SO 157 6,0 C 22,8 C 0,0 km/h (0 Bft)
18.10.2014 23:40 7,6 C 90 % 1025,9 hPa 0,0 l/m 0,0 km/h (0 Bft) S-SO 157 6,1 C 22,8 C 0,0 km/h (0 Bft)
18.10.2014 23:50 7,2 C 90 % 1025,9 hPa 0,0 l/m 0,0 km/h (0 Bft) S-SO 157 5,7 C 22,8 C 0,0 km/h (0 Bft)
_ Min-Zeit 07:40 15:30 02:40 - 23:50 - - 03:50 23:50 23:50
Minimum _ 4,6 C 43 % 1023,0 hPa - 0,0 km/h (0 Bft) - - 4,0 C 22,8 C 0,0 km/h (0 Bft)
_ Max-Zeit 15:40 08:20 22:50 23:50 23:50 - - 13:00 23:50 23:50
Maximum _ 22,1 C 97 % 1026,2 hPa 0,0 l/m 0,0 km/h
S-SO (0 Bft)
- - 14,5 C 22,8 C 0,0 km/h
S-SO (0 Bft)
Durchschnitt _ 10,7 C 82 % 1024,8 hPa #0,0 l/m 0,0 km/h (0 Bft) - - - 7,2 C 22,8 C 0,0 km/h (0 Bft)